Location: Dammartin
(48.9032°N, 1.6195°E)
Time: 20:38:33
(UTC+00:00)

YUBILEINY - Pass Details

Date: 10 December 2023
Orbit: 1479 x 1508 km, 82.5° (Epoch: 04 March)

Event Time Altitude Azimuth Distance (km) Brightness Sun altitude
Rises 21:11:37 0° 345° (NNW) 4,626 ? -50.0°
Reaches altitude 10° 21:14:53 10° 336° (NNW) 3,639 ? -50.5°
Enters shadow 21:20:42 29° 296° (WNW) 2,443 ? -51.3°
